RH
26 25 18 17 24 23 27 33 34 38 43 54 62 80 78 78 79 62 54 59 71 68 95 66 54 54 35 57 96 100 100 98 93 90 100 100 98 93 92 96 95 87 63
26 24 18 21 22 24 26 33 36 36 38 46 52 60 53 60 56 55 63 74 74 71 69 84 77 66 42 74 100 100 99 93 91 93 95 100 100 96 89 95 98 98 82
26 18 21 26 25 26 26 28 37 35 36 38 50 66 66 67 73 73 78 85 87 98 84 80 95 77 49 83 99 100 92 91 94 90 84 97 94 98 90 95 99 94 84
22 28 30 30 27 28 27 32 37 36 37 40 50 64 63 68 65 63 72 77 84 97 84 68 86 98 58 89 95 91 89 82 95 92 85 88 80 90 91 92 95 81 78
41 41 38 37 37 35 35 38 39 40 42 48 59 67 68 66 66 89 94 96 99 100 88 77 70 100 78 68 88 84 87 91 85 97 90 91 61 62 61 67 76 75 69
48 46 58 47 42 43 42 42 44 47 52 61 73 75 79 85 99 100 100 99 90 100 91 67 63 81 94 68 74 69 78 90 89 88 88 87 68 39 42 36 35 55 57
56 60 66 81 64 52 45 45 56 64 72 83 86 89 94 100 100 100 98 100 98 98 77 81 63 76 80 61 65 65 70 87 88 83 78 86 77 48 36 33 34 36 47
54 53 70 100 99 95 81 72 69 90 97 98 99 100 100 97 100 100 98 100 98 82 74 78 56 74 74 63 57 64 68 80 88 82 80 75 73 66 59 45 46 43 36
44 53 49 61 96 100 99 96 98 96 86 100 100 100 99 100 100 100 90 85 78 64 78 68 64 74 82 74 74 74 72 72 78 79 76 75 74 72 70 59 47 52 56
33 37 50 49 80 95 94 97 99 95 93 100 100 100 98 96 100 100 94 80 80 81 74 77 68 66 78 71 66 70 71 71 70 71 70 70 67 70 68 60 58 54 52
26 29 34 45 48 86 94 97 96 97 98 97 100 100 100 98 99 100 99 92 98 92 82 71 63 67 67 66 66 67 68 68 69 69 68 68 67 67 68 67 66 61 57
35 29 28 36 48 43 67 92 96 97 95 96 99 100 100 100 100 94 89 86 84 80 72 67 64 64 65 66 66 65 64 67 66 66 68 66 67 68 67 71 69 64 62
35 34 31 34 38 51 44 51 83 92 99 100 100 99 100 100 97 78 68 62 75 68 68 67 63 62 61 59 58 59 59 59 59 62 60 57 60 62 61 62 62 60 61
40 36 38 30 38 40 55 50 50 80 95 98 100 100 98 100 100 96 92 96 75 66 66 67 66 63 58 58 57 54 54 54 54 54 56 59 58 54 50 53 51 51 59
37 37 46 36 26 39 51 53 47 48 81 96 96 99 100 98 100 100 96 90 88 100 99 87 68 74 70 62 65 64 61 57 57 56 56 52 50 50 52 54 51 50 50
31 32 46 42 30 36 40 60 56 45 54 91 99 91 95 98 99 99 100 85 75 92 97 93 97 94 91 78 67 67 69 67 66 63 59 57 66 71 75 68 62 59 63
36 36 50 45 35 35 45 63 70 52 67 90 92 85 83 88 90 92 100 99 86 81 97 100 95 89 96 90 89 93 94 92 89 96 98 93 95 100 100 99 88 76 76
50 43 38 37 36 34 44 59 84 67 66 95 92 93 86 81 91 92 94 96 98 98 98 95 93 98 92 92 91 83 80 95 96 89 92 100 96 94 99 100 100 99 100
50 43 33 28 32 31 47 61 95 77 64 81 83 81 78 79 99 95 94 96 99 100 99 100 100 99 99 100 100 100 100 100 100 97 93 97 100 100 99 100 98 98 98
67 52 29 24 26 27 56 63 98 86 84 81 86 88 84 78 97 100 100 99 100 99 100 100 100 100 100 100 100 100 100 100 100 92 95 97 94 92 99 100 100 98 90
66 54 49 27 23 29 59 82 96 93 86 99 90 91 86 98 100 96 96 98 100 98 100 99 100 100 93 99 100 100 100 100 100 99 97 100 99 97 100 100 99 96 94
92 74 65 42 30 39 67 99 90 89 92 96 95 94 88 90 86 89 85 94 89 95 99 99 99 99 100 99 99 98 99 100 100 100 100 100 100 100 100 100 99 100 100
90 84 71 46 44 82 91 100 82 87 89 91 95 92 92 92 94 92 91 98 100 100 99 100 100 99 99 98 99 100 100 100 100 99 99 98 98 99 98 99 100 100 100
87 88 78 99 99 99 99 97 76 92 92 89 98 98 96 98 94 98 89 85 83 83 84 90 98 98 98 93 96 96 97 99 100 100 100 100 99 98 98 98 100 100 100
98 98 99 100 100 100 100 100 96 97 95 94 100 98 99 98 99 97 98 94 92 86 80 82 82 76 83 81 90 95 96 96 97 94 94 94 91 96 98 98 99 98 100
96 97 100 98 99 98 99 100 98 100 100 98 100 99 100 100 100 100 100 100 98 94 93 96 95 96 98 99 95 85 83 84 88 94 98 98 99 100 100 99 99 99 100
Wind_Speed
36 33 27 21 22 28 34 35 31 30 34 38 39 39 39 36 33 32 31 31 32 32 32 32 33 33 37 41 38 35 35 33 31 27 25 22 21 17 15 13 11 8 6
35 33 21 19 19 24 32 33 31 30 30 36 39 40 37 36 34 32 32 31 31 34 29 34 34 35 40 43 42 40 38 36 31 33 30 24 23 22 21 18 16 13 10
33 18 17 18 19 21 28 30 31 30 30 31 36 40 35 29 29 32 36 38 35 38 31 33 30 36 42 46 44 42 42 41 38 35 27 14 12 26 25 23 21 18 14
15 12 13 12 12 17 23 27 31 32 31 34 38 40 42 40 35 44 46 46 43 42 33 37 34 38 41 48 46 42 42 41 42 40 35 25 16 15 15 31 28 23 19
9 8 4 3 6 13 18 23 27 30 32 32 36 40 44 47 45 39 40 46 45 42 38 43 47 40 41 47 47 44 43 42 41 43 41 33 18 13 10 9 29 28 23
16 9 4 1 2 6 12 18 21 23 25 28 34 40 44 42 45 43 43 41 49 40 41 45 50 42 40 49 47 44 43 43 41 41 41 41 30 16 10 8 7 23 23
27 22 11 5 2 6 9 12 15 19 22 23 30 34 40 40 38 45 42 46 54 40 38 47 46 44 42 48 47 44 43 43 42 40 40 40 35 18 8 8 7 6 17
32 29 22 12 6 3 6 7 9 11 15 19 25 30 30 23 38 42 41 46 47 43 45 43 42 43 40 45 47 43 42 42 42 39 36 36 37 34 25 13 9 7 6
39 35 28 20 8 3 4 7 10 9 11 17 22 21 21 20 32 34 30 39 40 45 50 42 40 42 42 42 43 44 43 42 42 39 35 34 34 33 30 27 19 12 9
37 40 36 31 19 5 3 6 10 10 9 13 14 15 17 14 24 32 28 35 43 40 39 41 40 39 40 38 37 40 40 41 41 40 36 34 33 33 32 29 26 23 20
34 34 37 36 29 16 6 4 7 10 11 11 13 15 18 17 15 30 32 32 37 33 35 38 35 36 37 35 36 38 39 38 39 39 36 35 33 31 31 30 29 27 24
31 34 35 36 35 25 15 8 4 5 10 9 11 10 13 14 19 19 18 19 22 26 29 30 30 33 34 35 36 36 37 38 38 37 36 34 33 32 30 30 30 28 26
36 34 33 35 37 32 24 17 10 5 5 9 9 12 11 12 19 21 15 19 19 21 23 26 29 31 32 33 33 34 34 34 35 35 34 32 32 30 30 31 30 29 28
36 36 32 33 32 33 27 24 15 9 3 6 10 8 11 9 14 17 12 24 27 27 26 27 27 28 28 30 31 32 31 30 31 32 31 31 30 29 28 29 28 28 29
41 37 32 32 31 31 29 26 23 13 8 3 7 8 6 7 10 10 13 11 4 21 29 31 29 26 27 29 28 30 30 30 29 29 29 28 28 27 27 28 28 29 29
42 38 32 30 29 29 30 26 26 20 9 5 4 3 6 7 11 9 19 13 12 6 11 15 27 30 27 28 19 26 28 27 26 28 29 29 28 26 27 30 30 30 31
36 35 30 30 30 28 28 25 25 23 11 4 3 5 4 6 9 13 14 16 17 14 20 17 12 14 12 10 11 13 17 21 24 22 21 24 23 22 21 23 27 28 29
29 32 33 31 29 28 25 22 22 20 11 5 1 3 6 8 10 10 10 13 15 17 18 25 26 22 23 21 20 16 19 24 24 23 22 24 20 21 23 20 21 24 27
40 37 35 35 34 30 22 19 20 18 9 3 3 5 6 7 6 12 11 10 11 7 10 12 16 13 18 28 28 26 29 27 28 28 24 22 20 19 18 19 19 22 24
43 39 33 35 36 26 17 15 17 18 10 3 5 4 5 9 7 9 12 12 11 9 9 9 10 12 10 9 10 13 17 20 20 25 21 19 20 19 18 19 18 20 19
40 33 31 30 29 24 13 11 15 15 9 1 5 5 6 5 7 7 8 10 12 10 12 12 10 10 13 10 12 12 11 14 19 22 22 22 22 22 20 21 22 22 20
29 27 28 26 22 19 16 12 13 13 5 3 7 7 9 8 7 8 8 7 11 10 11 9 10 11 13 12 13 12 12 14 16 17 18 18 19 21 24 24 25 23 19
19 19 20 15 14 14 16 16 12 12 6 5 7 11 9 10 10 11 12 13 11 11 12 9 10 9 8 9 9 9 11 11 13 14 16 17 18 19 20 20 20 18 21
13 8 7 11 13 14 19 18 15 15 11 10 9 10 11 11 11 14 15 14 13 10 9 9 8 6 4 2 4 5 7 8 9 8 9 10 10 11 12 13 13 14 16
11 4 5 7 8 15 21 21 19 19 17 14 12 12 12 12 13 13 14 15 15 13 13 12 9 7 6 4 3 2 2 2 3 6 6 6 5 7 5 6 7 8 8
20 9 6 7 8 11 16 21 22 20 18 15 15 15 17 17 17 18 19 17 15 13 12 12 8 9 7 6 6 4 3 2 0 1 2 3 3 3 3 3 3 3 4
Wind_Direction
273 281 285 262 257 233 227 230 229 229 223 220 219 219 222 224 223 228 232 236 232 234 227 217 213 207 203 196 192 184 179 182 189 190 186 194 201 203 215 220 224 227 227
274 283 260 253 255 242 223 224 225 226 226 224 224 226 229 229 235 239 240 234 229 231 231 222 215 210 202 196 194 191 183 188 188 191 186 185 199 212 218 220 225 233 232
273 267 255 257 253 238 220 218 217 222 226 229 227 225 225 230 230 239 241 231 224 216 218 212 221 216 209 199 198 198 195 187 189 196 188 182 207 214 223 225 229 232 233
260 257 267 260 239 217 211 209 215 224 230 232 230 228 228 225 238 257 249 231 223 214 222 219 226 226 215 203 201 203 205 199 190 195 203 200 206 199 220 224 232 226 230
321 314 273 229 195 199 201 209 223 231 234 235 232 231 231 232 245 247 236 220 213 204 205 212 221 229 220 209 207 208 208 209 202 200 199 203 212 214 218 223 224 228 225
32 20 13 14 232 204 211 222 231 238 240 238 232 234 235 249 251 220 215 217 209 187 198 207 223 231 224 215 212 214 213 213 211 211 205 208 208 219 222 251 253 232 231
37 37 36 11 273 238 239 232 234 242 248 246 244 243 249 248 238 215 211 199 203 198 204 201 211 222 223 217 215 216 216 216 216 216 216 216 218 229 245 261 296 263 234
34 38 39 44 14 299 274 238 246 263 255 254 245 255 255 260 221 213 213 206 202 204 206 210 212 215 218 217 217 219 220 219 222 222 224 227 228 235 243 262 278 289 278
22 34 38 41 36 357 271 251 260 268 263 267 249 264 259 225 201 204 214 209 197 209 205 211 206 212 215 217 220 221 222 222 226 227 230 232 236 239 244 249 257 262 279
21 27 34 37 35 41 315 274 263 276 281 275 247 260 239 220 205 197 202 207 204 209 216 209 209 212 216 219 221 224 224 226 228 231 232 234 236 239 244 248 253 257 261
16 16 22 31 37 43 26 330 272 270 277 270 255 251 220 208 193 191 193 199 206 219 213 207 211 215 217 221 222 226 226 228 229 232 234 236 238 239 243 247 251 254 256
5 7 13 18 28 36 38 21 341 285 279 273 266 259 212 213 189 176 167 183 201 208 209 213 218 221 223 224 224 226 227 229 231 232 234 236 238 239 241 246 250 253 255
358 3 6 10 14 25 29 29 22 316 286 281 269 259 238 228 174 185 185 198 201 204 210 217 220 224 227 227 227 230 231 232 233 235 236 237 239 240 242 244 247 251 254
347 351 356 357 5 13 23 21 21 15 326 244 257 239 237 232 204 189 180 222 214 217 215 214 217 222 225 227 228 230 232 234 236 238 239 241 242 243 245 247 249 251 253
335 340 342 345 356 2 12 17 15 5 0 267 230 244 227 202 197 205 176 184 210 219 220 222 219 220 224 222 226 230 233 234 235 236 239 242 244 246 249 250 250 252 254
324 329 330 334 345 352 358 3 7 1 351 340 239 207 201 218 208 207 204 173 215 250 199 212 224 225 235 229 237 238 233 231 233 239 239 241 244 245 250 249 249 249 251
316 320 317 322 332 340 349 354 357 355 346 2 230 222 193 213 220 212 204 201 190 222 209 201 187 191 177 181 210 208 212 225 218 230 233 241 248 257 263 258 247 249 252
302 305 304 307 317 328 338 343 352 347 345 354 224 220 209 208 209 194 205 209 213 219 210 201 215 209 204 210 188 201 212 227 224 223 230 246 260 261 260 257 258 259 260
292 292 295 298 303 313 325 335 342 337 343 285 245 262 258 227 198 194 196 203 198 197 189 201 204 210 217 226 225 221 227 244 228 227 229 240 255 258 259 261 265 269 265
295 288 282 281 288 297 309 322 326 323 330 262 269 240 229 219 207 182 191 195 197 190 187 190 200 210 205 219 227 230 230 234 234 224 238 248 253 249 262 266 268 270 271
291 281 277 269 274 284 286 295 304 308 312 267 241 223 202 198 189 207 199 181 180 198 194 187 202 199 225 225 222 225 230 233 234 239 246 253 253 251 260 267 264 267 277
289 274 265 257 259 269 253 250 281 294 278 246 224 217 218 214 199 189 187 183 206 198 173 192 185 207 224 235 234 234 245 246 245 247 252 258 258 254 256 265 265 257 253
307 280 264 255 256 249 230 231 257 267 246 226 219 214 207 198 196 204 197 190 167 159 165 163 165 173 198 216 219 223 230 234 233 237 245 251 259 264 265 265 260 249 251
347 311 278 269 257 229 219 223 235 230 212 215 195 175 176 166 172 163 161 168 173 171 173 180 181 171 165 218 244 226 225 229 238 247 262 269 270 271 274 273 256 254 253
34 57 161 171 217 225 215 208 208 203 201 199 189 166 157 159 153 157 150 154 153 163 171 174 170 194 182 189 197 168 184 183 241 248 245 259 275 275 270 263 247 229 234
41 59 111 170 159 176 193 194 197 195 194 185 180 169 168 156 153 151 139 133 131 137 139 134 133 128 130 124 131 119 100 78 182 212 164 154 147 159 170 190 191 203 209